Showing default

YAOGAN-31 F, 47536

Orbit data source: Space-Track

YAOGAN-31 F, 47536 is a payload satellite owned by PLA SSF (CN) in LEO that was launched on Fri, 29 Jan 2021 UTC via a CHANG ZHENG 4C launch vehicle from the Jiuquan Satellite Launch Center, China (JSC). Payload-class satellites include a variety of spacecraft equipped with specific instruments for various scientific and technological missions. These include communications satellites like Starlink; space stations such as the ISS; scientific satellites like the Hubble; Earth observation satellites from companies like Planet Labs, Umbra, and HawkEye 360; GPS; miniature CubeSats for education and research; and military/defense satellites.

Loading next visibility...
Identifier
47536, 2021-007E
Orbit
LEO
Country
Flag of CNCN / PRC
Related business
Manufacturer
DFH
Mission
Operational Defense Sigint
Bus & Motor
Unknown
Mass
~500 kg wet, ~500 kg dry
Launch date (UTC)
2021-01-29 (5 years ago)
Launch vehicle
CHANG ZHENG 4C
Launch site
Jiuquan Satellite Launch Center, China (JSC)
Object type
Payload
Rocket body
Debris
Shape & HBR
Box + 2 Pan, 0.5 m
Radar Cross Section
0.446 m², Large (>1 m²)

Expand to show TLE details & history
Last TLE update: 22 hours ago

TLE from 22 hours ago
0 YAOGAN-31 F
1 47536U 21007E   26172.50383975 -.00000082  00000-0  13059-4 0  9996
2 47536  63.4022 131.0483 0176546   0.6715 359.4515 13.45447657264798
Epoch: 2026-06-21T12:05Z
TLE epoch observation values (Epoch: 2026-06-21T12:05:31.754Z)
Latitude
-0.0001°
Longitude
39.96277°
Altitude
958.984 km
Speed
7.437 km/s
True Right ascension
08h 44m 11s
True Declination
0° 00' 00"
Sunlit
Object was in daylight at epoch
Visualization orbit readout
Latitude
Unknown
Longitude
Unknown
Altitude
Unknown
Speed
Unknown
Apparent Right ascension
Unknown
Apparent Declination
Unknown
Sunlit
N/A
Visualization observer readout
Local Sidereal Time
21:27:21
Azimuth
Unknown
Elevation
Unknown
Doppler factor
Unknown
Orbital elements
Apogee altitude
1,219.693 km
Perigee altitude
956.074 km
Semi-major axis
7,466.02 km
Eccentricity
0.01765
Inclination
63.4022°
RAAN
131.0483°
Arg. of periapsis
0.6715°
True anomaly
359.4317°
Mean anomaly
359.4515°
Eccentric anomaly
359.44164°
Mean motion
3.36441 °/min
Orbital period
107 mins
BSTAR
0.000013059
Loading maneuver chart data...
Computing Atmospheric mass density...
Loading historical data...
Loading historical data...
Loading historical data...
Loading historical data...
Loading historical data...
Loading historical data...
Loading historical data...
Other satellites on launch #7 in the year 2021 (2021-01-29 UTC)

Documentation

Showing up to 5 results
|